Regional Weather Roundup
Issued by NWS Cleveland, OH

Home | Current Version | Previous Version | Text Only | Print | Product List | Glossary On
Versions: 1 2 3 4 5 6 7 8 9 10 11 12 13 14 15 16 17 18 19 20 21 22 23 24 25 26 27 28 29 30 31 32 33 34 35 36 37 38 39 40 41 42 43 44 45 46 47 48 49 50
000
ASUS41 KCLE 090812
RWRCLE
OHIO REGIONAL WEATHER ROUNDUP
NATIONAL WEATHER SERVICE WILMINGTON, OH
300 AM EST TUE FEB 09 2016

NOTE: "FAIR" INDICATES FEW OR NO CLOUDS BELOW 12,000 FEET WITH NO
SIGNIFICANT WEATHER AND/OR OBSTRUCTIONS TO VISIBILITY.

OHZ001>008-015>018-024>027-034-035-043-044-090900-
   NORTHWEST OHIO

CITY           SKY/WX    TMP DP  RH WIND       PRES   REMARKS
DEFIANCE       CLOUDY    30  23  75 W10       29.61F WCI  21
FINDLAY        CLOUDY    30  25  81 W13       29.59F WCI  20
TOLEDO EXPRESS CLOUDY    30  25  81 W12       29.58S WCI  20
TOLEDO EXEC    CLOUDY    32  26  78 W13       29.58F WCI  22
LIMA           CLOUDY    27  23  85 W18       29.61S WCI  14
$$

OHZ009>014-019>023-028>033-038-089-090900-
   NORTHEAST OHIO

CITY           SKY/WX    TMP DP  RH WIND       PRES   REMARKS
CLE-HOPKINS    FLURRIES  32  29  88 W9        29.58S WCI  24
CLE-LAKEFRONT  CLOUDY    34  30  85 W14       29.55S WCI  25
CUY CO. ARPT   NOT AVBL
LORAIN-ELYRIA  CLOUDY    31  27  85 W6        29.56F WCI  25
ASHTABULA      CLOUDY    33  31  92 W7        29.54S WCI  27
AKRON-CANTON   CLOUDY    30  27  88 W7        29.54F FOG     WCI  23
WOOSTER        CLOUDY    30  27  88 W12       29.56S WCI  20
MANSFIELD      CLOUDY    29  26  89 W9        29.56S WCI  20
YOUNGSTOWN     LGT SNOW  32  30  92 SW3       29.53F FOG
$$

OHZ042-051>053-060>062-070>072-077>081-090900-
  SOUTHWEST OHIO

CITY           SKY/WX    TMP DP  RH WIND       PRES   REMARKS
CINC-COVINGTON FLURRIES  21  15  78 W14       29.71F WCI   8
CINC-LUNKEN    LGT SNOW  22  17  81 W15       29.75S WCI   9
HAMILTON       LGT SNOW  22  19  89 W12       29.72F FOG     WCI  10
DAYTON         LGT SNOW  23  21  92 W14       29.65F FOG     WCI  11
WRIGHT-PAT AFB FLURRIES  24  21  88 SW9       29.66S WCI  14
DAYTON GENERAL LGT SNOW  21  17  84 W12       29.67S FOG     WCI   9
WILMINGTON     LGT SNOW  21  18  88 W14       29.66S VSB 1   WCI   8
$$

OHZ036-037-039>041-045>050-054>059-063>069-073>076-082>088-090900-
  CENTRAL AND SOUTHEAST OHIO

CITY           SKY/WX    TMP DP  RH WIND       PRES   REMARKS
COLUMBUS       LGT SNOW  28  25  88 W12       29.61S FOG     WCI  18
OSU AIRPORT    LGT SNOW  27  25  92 W13       29.61S FOG     WCI  16
BOLTON FIELD   CLOUDY    27  24  90 W10       29.63S WCI  17
RICKENBACK AFB LGT SNOW  27  25  91 W14       29.62F WCI  16
NEWARK         LGT SNOW  32  27  81 MISG      29.58S
MARION         CLOUDY    29  24  82 W12       29.60S HAZE    WCI  19
LANCASTER      LGT SNOW  26  23  88 W10       29.62R FOG     WCI  16
ZANESVILLE     CLOUDY    33  29  85 NW7       29.57S WCI  27
NEW PHILLY     CLOUDY    32  29  88 W3        29.57S
$$



USA.gov is the U.S. government's official web portal to all federal, state and local government web resources and services.